[[{"header":{"parameterUnit":"m.s-1","parameterCategory":1,"la1":30.2991,"la2":30.254,"lo1":-89.0895,"lo2":-89.0444,"dy":0.0017,"dx":0.0017,"nx":28,"ny":28,"refTime":"2024-06-04T09:00:00:Z","depth":0,"parameterNumber":2,"parameterNumberName":"U-component_of_WINDS"},"data":[0,0,0,0,0,0,0,0,0,0,0,0,0,0,0,0,0,0,0,0,0,0,0,0,0,0,0,0,0,0,0,0,0,0,0,0,0,0,0,0,0,0,0,0,0,0,0,0,0,0,0,0,0,0,0,0,0,0,1.1163,1.1162,0,1.1096,1.1095,1.1095,1.1019,1.1018,1.1017,1.1016,1.095,1.095,1.0949,0,0,0,0,0,0,0,0,0,0,0,0,0,1.1226,1.1225,1.1163,1.1162,1.1161,1.1096,1.1095,1.1094,1.1019,1.1018,1.1016,1.1015,1.0951,1.095,1.0949,0,0,0,0,0,0,0,0,0,0,0,0,0,1.1183,1.1225,1.1163,1.1116,1.1111,1.1096,1.1095,1.1094,1.1019,1.1018,1.1016,1.1014,1.0951,1.095,1.0949,1.0976,0,0,1.0946,1.0945,0,0,0,0,0,0,0,0,1.1186,1.1181,1.1123,1.1119,1.1113,1.1064,1.1094,1.1055,1.102,1.1054,1.1016,1.1014,1.099,1.0985,1.0977,1.0973,1.0971,1.0946,1.0945,1.0945,1.0944,0,0,0,0,0,0,0,1.1189,1.1183,1.1136,1.1123,1.1116,1.1098,1.109,1.1086,1.1032,1.1051,1.1045,1.1038,1.0987,1.0978,1.0975,1.097,1.0946,1.0945,1.0944,1.0944,1.0984,1.0985,0,0,0,0,0,0,1.1198,1.1186,1.1138,1.1134,1.1146,1.1098,1.1089,1.1082,1.1032,1.1023,1.104,1.1035,1.098,1.0976,1.0972,1.0999,1.0945,1.0944,1.0943,1.0982,1.0984,1.0986,0,0,0,0,0,0,1.12,1.1195,1.1141,1.1159,1.115,1.1099,1.1091,1.1081,1.1072,1.1024,1.1014,1.1041,1.0979,1.0973,1.0975,1.0996,1.0943,1.0942,1.098,1.0983,1.0985,1.1056,0,0,0,0,0,0,1.1202,1.1196,1.1206,1.1159,1.115,1.1145,1.1092,1.1081,1.107,1.1063,1.1022,1.1013,1.0977,1.0977,1.0974,1.0994,1.0941,1.0978,1.0981,1.0984,1.1051,1.106,1.1068,0,0,0,0,0,1.1205,1.1229,1.1207,1.1201,1.1161,1.1147,1.1141,1.1098,1.1072,1.1082,1.105,1.1015,1.0995,1.0978,1.0974,1.0994,1.0976,1.098,1.0984,1.1047,1.1058,1.1068,0,0,0,0,0,0,1.1281,1.1222,1.1197,1.1207,1.1182,1.1134,1.1144,1.1112,1.1094,1.1089,1.1037,1.1028,1.1036,1.1015,1.0998,1.1017,1.098,1.0983,1.103,1.104,1.1048,1.1052,1.0941,0,0,0,0,0,1.1298,1.1291,1.1241,1.1255,1.1244,1.1196,1.1189,1.1157,1.113,1.112,1.1088,1.1064,1.1052,1.1045,1.1031,1.1048,1.1037,1.106,1.1068,1.1075,1.1078,1.1084,1.1092,1.0998,1.0998,1.0998,0,0,1.1335,1.1303,1.1301,1.1269,1.1246,1.124,1.1188,1.1184,1.1179,1.1119,1.1118,1.1095,1.1064,1.1073,1.1075,1.1055,1.1102,1.108,1.1086,1.1085,1.1088,1.1097,1.1105,1.1001,1.1,1.1,0,0,1.1399,1.1374,1.1381,1.1359,1.1325,1.1293,1.1295,1.1251,1.1233,1.1231,1.1185,1.1179,1.116,1.1139,1.1126,1.118,1.1146,1.1178,1.1221,1.1227,1.1234,1.1241,1.1259,1.1266,1.1181,1.1181,1.1181,0,1.1449,1.1437,1.139,1.1388,1.1374,1.1319,1.1326,1.1307,1.1271,1.1263,1.1242,1.1215,1.1191,1.1193,1.1206,1.1198,1.1198,1.1181,1.1237,1.1243,1.1248,1.1264,1.1272,1.1185,1.1185,1.1184,1.1184,0,1.1499,1.1492,1.1502,1.1466,1.1454,1.1458,1.1411,1.1405,1.1375,1.1345,1.1343,1.1312,1.129,1.1289,1.126,1.1287,1.1275,1.1247,1.1208,1.1262,1.1276,1.1282,1.119,1.1189,1.1188,1.1187,0,0,1.1608,1.1546,1.155,1.1532,1.149,1.1483,1.1484,1.1461,1.1456,1.1433,1.1431,1.1415,1.1387,1.1373,1.1341,1.1347,1.139,1.1317,1.1315,1.133,1.1415,1.1436,1.1445,1.1368,1.1369,1.137,1.1417,0,1.1663,1.1658,1.1615,1.1623,1.1615,1.1562,1.1562,1.1536,1.1509,1.1498,1.1468,1.1457,1.1422,1.1412,1.1416,1.1384,1.1406,1.138,1.1365,1.1365,1.1373,1.1452,1.1475,1.1521,1.1423,1.1424,1.1425,0,1.1725,1.1704,1.171,1.1666,1.1661,1.1662,1.1637,1.1627,1.1597,1.1576,1.156,1.1523,1.152,1.1486,1.148,1.1464,1.1455,1.1439,1.144,1.1435,1.1397,1.1449,1.1535,1.1542,1.1433,1.1433,1.1432,0,1.1801,1.1775,1.1774,1.1761,1.1711,1.1712,1.1691,1.1659,1.1647,1.1626,1.1618,1.1597,1.1586,1.1571,1.153,1.1509,1.1529,1.1491,1.1511,1.1513,1.1517,1.1517,1.1602,1.1515,1.1515,1.1514,1.1514,0,1.1866,1.1871,1.1808,1.1808,1.1812,1.1764,1.177,1.1744,1.1715,1.1709,1.1664,1.1659,1.1606,1.1596,1.1564,1.1564,1.156,1.1543,1.1534,1.1546,1.1548,1.1538,1.1534,1.1516,1.1516,1.1515,1.1515,0,1.1951,1.1909,1.1905,1.1857,1.1845,1.185,1.1809,1.1807,1.1776,1.1769,1.1765,1.1717,1.1702,1.166,1.1636,1.1614,1.1622,1.1607,1.1632,1.1626,1.1648,1.1646,1.1729,1.1737,1.1646,1.1647,1.1648,0,1.1994,1.1996,1.1948,1.194,1.1921,1.1909,1.1896,1.1849,1.1838,1.1803,1.1805,1.1786,1.1768,1.1747,1.1711,1.1691,1.1674,1.1704,1.1671,1.1682,1.1672,1.1672,1.1671,1.1711,1.1713,1.1714,1.1714,0,1.2073,1.2052,1.2036,1.2012,1.1998,1.1977,1.1954,1.195,1.1897,1.1887,1.1871,1.1857,1.183,1.1812,1.1786,1.1765,1.1731,1.1725,1.1729,1.174,1.1754,1.1745,1.165,1.1723,1.1723,1.1722,1.1721,1.1721,1.2137,1.2137,1.2102,1.2085,1.2062,1.2041,1.2036,1.2005,1.199,1.1963,1.1937,1.1923,1.1892,1.1853,1.1835,1.1823,1.1805,1.1811,1.1812,1.1813,1.1818,1.1757,1.1819,1.1818,1.1818,1.1818,1.1818,0,1.2213,1.2188,1.2173,1.2141,1.2127,1.2095,1.2068,1.2059,1.2047,1.202,1.2003,1.1984,1.1965,1.1927,1.1906,1.1904,1.1888,1.19,1.1899,1.1894,1.1836,1.1835,1.1913,1.1913,1.1913,1.1913,1.1913,1.1913,1.2251,1.2247,1.2222,1.2207,1.2182,1.2167,1.2153,1.2134,1.2112,1.2092,1.2076,1.2051,1.2019,1.1995,1.1977,1.1966,1.196,1.1977,1.1961,1.1907,1.1898,1.189,1.1888,1.1976,1.1976,1.2019,1.202,1.202]},{"header":{"parameterUnit":"m.s-1","parameterCategory":1,"la1":30.2991,"la2":30.254,"lo1":-89.0895,"lo2":-89.0444,"dy":0.0017,"dx":0.0017,"nx":28,"ny":28,"refTime":"2024-06-04T09:00:00:Z","depth":0,"parameterNumber":3,"parameterNumberName":"V-component_of_WINDS"},"data":[0,0,0,0,0,0,0,0,0,0,0,0,0,0,0,0,0,0,0,0,0,0,0,0,0,0,0,0,0,0,0,0,0,0,0,0,0,0,0,0,0,0,0,0,0,0,0,0,0,0,0,0,0,0,0,0,0,0,5.9967,5.9968,0,6.002,6.0021,6.0021,5.9955,5.9953,5.9951,5.9948,5.9998,6.0001,6.0005,0,0,0,0,0,0,0,0,0,0,0,0,0,5.9805,5.9808,5.9967,5.9968,5.9968,6.002,6.0021,6.0021,5.9956,5.9953,5.995,5.9947,5.9997,6.0001,6.0005,0,0,0,0,0,0,0,0,0,0,0,0,0,5.9868,5.9809,5.9967,5.9942,5.994,6.002,6.0021,6.0022,5.9956,5.9953,5.9949,5.9946,5.9995,6.0001,6.0006,6.0111,0,0,6.0022,6.0025,0,0,0,0,0,0,0,0,5.9865,5.9874,5.9945,5.9944,5.9942,5.9977,5.9982,6.0051,5.9957,5.995,5.9948,5.9944,5.9994,5.9999,6.0017,6.0113,6.0115,6.0023,6.0026,6.0028,6.003,0,0,0,0,0,0,0,5.986,5.9871,5.9988,5.9946,5.9944,5.9927,5.9932,5.9994,5.9991,5.995,5.9946,5.9953,5.9992,6.0012,6.0017,6.0116,6.0023,6.0027,6.0031,6.0033,6.0301,6.0304,0,0,0,0,0,0,5.9859,5.9868,5.9986,5.9989,5.9894,5.9933,5.9938,5.997,5.9991,5.999,5.9956,5.995,6.0004,6.0011,6.0019,6.0143,6.0028,6.0033,6.0036,6.0297,6.0302,6.0306,0,0,0,0,0,0,5.9856,5.9871,5.9984,5.9928,5.9941,5.9939,5.9975,5.9973,5.9992,5.9995,5.9994,5.9977,6.0002,6.0011,6.0089,6.0143,6.0036,6.004,6.0292,6.0298,6.0304,6.0391,0,0,0,0,0,0,5.9852,5.987,5.9911,5.9929,5.9944,6.0055,5.9979,5.9976,6.0002,5.9994,6.0014,6.0014,6.0,6.0081,6.0094,6.0149,6.0045,6.0287,6.0295,6.0302,6.0384,6.0399,6.0413,0,0,0,0,0,5.9846,5.9933,5.9913,5.9928,5.9996,6.0058,6.0066,6.0049,6.0007,6.0047,6.0049,6.0013,6.0136,6.009,6.0104,6.0161,6.0284,6.0293,6.0301,6.0377,6.0396,6.0413,0,0,0,0,0,0,5.9919,5.9935,5.9913,6.0008,6.0033,6.0047,6.0097,6.0071,6.0106,6.0097,6.0074,6.0079,6.0161,6.0169,6.0117,6.0263,6.0202,6.0214,6.0255,6.0274,6.0288,6.0284,6.0049,0,0,0,0,0,5.9947,5.9997,6.0007,6.009,6.0104,6.0099,6.0125,6.011,6.0134,6.0143,6.015,6.0173,6.0217,6.0246,6.0286,6.0385,6.0387,6.0431,6.0446,6.0458,6.0468,6.052,6.0539,6.0335,6.0335,6.0334,0,0,6.0003,6.0018,6.0051,6.0105,6.0122,6.0174,6.0108,6.0165,6.0203,6.0151,6.0225,6.0231,6.0255,6.0344,6.0383,6.0352,6.0525,6.0469,6.0479,6.0482,6.0531,6.055,6.0567,6.0341,6.034,6.0339,0,0,6.0132,6.0149,6.022,6.0238,6.0266,6.0262,6.0279,6.0297,6.03,6.0374,6.0336,6.038,6.0456,6.0474,6.0493,6.063,6.0598,6.0644,6.0721,6.0772,6.0788,6.0802,6.0849,6.0867,6.0654,6.0655,6.0655,0,6.0198,6.0276,6.0259,6.0319,6.0344,6.0302,6.0372,6.039,6.0429,6.0446,6.0412,6.0506,6.0519,6.0611,6.0644,6.0662,6.0679,6.0641,6.0787,6.0801,6.0814,6.0859,6.0877,6.066,6.0659,6.0659,6.0658,0,6.0356,6.041,6.0464,6.0503,6.0534,6.0599,6.059,6.0623,6.0606,6.0605,6.0681,6.0695,6.0737,6.0758,6.0741,6.0848,6.0828,6.0791,6.0729,6.0839,6.0881,6.0898,6.0668,6.0666,6.0664,6.0663,0,0,6.0531,6.0561,6.0581,6.0598,6.0625,6.0666,6.0729,6.0772,6.08,6.0828,6.0879,6.0944,6.0911,6.0933,6.0917,6.0962,6.1069,6.092,6.092,6.0946,6.1185,6.1212,6.1232,6.1048,6.1052,6.1054,6.1183,0,6.0659,6.0769,6.0756,6.0861,6.091,6.0871,6.0926,6.0947,6.0949,6.099,6.099,6.1037,6.0989,6.1002,6.1045,6.1047,6.1116,6.1037,6.1094,6.1096,6.1088,6.1254,6.1283,6.1404,6.1199,6.1202,6.1204,0,6.0823,6.0859,6.0969,6.0989,6.1009,6.1058,6.1096,6.1137,6.116,6.1158,6.1183,6.116,6.1221,6.116,6.1244,6.119,6.1213,6.1217,6.1221,6.1225,6.1156,6.1261,6.1442,6.1459,6.123,6.1228,6.1226,0,6.0938,6.1014,6.1089,6.1106,6.1131,6.1166,6.1178,6.1198,6.1225,6.1258,6.1274,6.1314,6.1335,6.1365,6.1353,6.1309,6.1438,6.1376,6.1437,6.1437,6.1464,6.1462,6.165,6.1481,6.1481,6.1481,6.148,0,6.1082,6.1151,6.1142,6.1188,6.1263,6.1247,6.1321,6.1328,6.1347,6.1393,6.1361,6.1404,6.1386,6.1428,6.1419,6.1489,6.1499,6.1498,6.1494,6.15,6.15,6.1513,6.1504,6.1485,6.1484,6.1483,6.1483,0,6.1223,6.122,6.1299,6.1317,6.1323,6.1378,6.1392,6.1435,6.1434,6.1493,6.1505,6.1504,6.1552,6.1543,6.1595,6.1589,6.1676,6.1663,6.1669,6.1665,6.1726,6.172,6.1927,6.1953,6.1769,6.1771,6.1773,0,6.1314,6.1366,6.139,6.142,6.1434,6.1482,6.1509,6.1495,6.1524,6.1556,6.1594,6.164,6.1675,6.1753,6.1756,6.1795,6.1782,6.1852,6.1787,6.1791,6.1781,6.1778,6.1783,6.1864,6.1866,6.1868,6.1869,0,6.1476,6.1472,6.1514,6.1555,6.1589,6.1621,6.1649,6.1674,6.1662,6.1697,6.1746,6.1774,6.1828,6.1873,6.191,6.192,6.1893,6.189,6.1906,6.1911,6.1912,6.1911,6.1702,6.1885,6.1883,6.1882,6.1881,6.1881,6.1594,6.1638,6.1662,6.171,6.173,6.1757,6.1798,6.1803,6.1845,6.1889,6.1877,6.1933,6.1955,6.2002,6.2017,6.2059,6.2033,6.2056,6.2062,6.2068,6.2075,6.1907,6.2066,6.2066,6.2065,6.2065,6.2065,0,6.1753,6.1767,6.1811,6.1852,6.1889,6.1862,6.1892,6.1924,6.1974,6.1997,6.2033,6.209,6.2133,6.214,6.2181,6.2214,6.2202,6.2225,6.2221,6.2224,6.2096,6.2078,6.2234,6.2234,6.2234,6.2233,6.2233,6.2233,6.184,6.1914,6.1913,6.1996,6.2009,6.2064,6.2083,6.2108,6.2126,6.2192,6.2228,6.2233,6.2249,6.2291,6.233,6.2331,6.2346,6.2374,6.237,6.225,6.2233,6.2217,6.2199,6.2378,6.2378,6.2494,6.2495,6.2496]}]]